Regional Weather Roundup
Issued by NWS Green Bay, WI

Home | Current Version | Previous Version | Graphics & Text | Print | Product List | Glossary Off
Versions: 1 2 3 4 5 6 7 8 9 10 11 12 13 14 15 16 17 18 19 20 21 22 23 24 25 26 27 28 29 30 31 32 33 34 35 36 37 38 39 40 41 42 43 44 45 46 47 48 49 50

000
ASUS43 KGRB 191111
RWRGRB

NORTH-CENTRAL AND NORTHEAST WISCONSIN REGIONAL WEATHER ROUNDUP
NATIONAL WEATHER SERVICE GREEN BAY WI
600 AM CDT TUE SEP 19 2017

WIZ005-009-010>012-018-019-191200-
NORTH CENTRAL WISCONSIN

CITY           SKY/WX    TMP DP  RH WIND       PRES   REMARKS
IRONWOOD       CLOUDY    57  49  74 SE8       30.00F
MANITOWISH WTR CLOUDY    55  53  94 SE6       30.02F
ARBOR VITAE    MOCLDY    57  54  89 CALM      30.03S
EAGLE RIVER    CLOUDY    54  50  87 E3        30.04R
LAND O LAKES   CLOUDY    54  52  94 CALM      30.05S
RHINELANDER    CLOUDY    52  52 100 E6        30.04R
PHILLIPS       CLOUDY    54  53  98 E3        30.00S
ANTIGO         CLOUDY    54  53  95 E6        30.03S
TOMAHAWK         N/A     50  49  95 CALM      30.03R
MERRILL        CLEAR     48  48 100 CALM      30.03R
$$

WIZ013-073-191200-
NORTHEAST WISCONSIN

CITY           SKY/WX    TMP DP  RH WIND       PRES   REMARKS
IRON MOUNTAIN  CLEAR     50  47  89 CALM      30.03S
MARINETTE      CLOUDY    62  58  86 E9        30.02S
OCONTO         CLOUDY    61  57  87 NE5       30.00F
$$

WIZ017-030-035>037-045-191200-
CENTRAL WISCONSIN

CITY           SKY/WX    TMP DP  RH WIND       PRES   REMARKS
MEDFORD        CLOUDY    53  51  94 E3        30.00S
WAUSAU         CLOUDY    54  52  93 E6        30.00R
MOSINEE        CLOUDY    54  54 100 E7        30.01F
MARSHFIELD     CLOUDY    55  52  89 E7        30.00R
WISC RAPIDS    CLOUDY    58  53  84 E6        30.00S
STEVENS POINT  PTCLDY    53  53  99 E5        30.01S
WAUPACA        CLOUDY    59  55  85 CALM      30.01R
SHAWANO        PTCLDY    59  56  88 NE7       30.01S
CLINTONVILLE   CLEAR     55  52  88 NE3       30.01S
WAUTOMA        PTCLDY    55  53  93 CALM      30.00S
$$

WIZ038-039-048-051-191200-
FOX VALLEY

CITY           SKY/WX    TMP DP  RH WIND       PRES   REMARKS
NWS GREEN BAY  CLOUDY    58  57  97 E5        30.00S
APPLETON       MOCLDY    59  57  94 NE6       29.99S
OSHKOSH        CLOUDY    61  58  90 NE5       29.99S
FOND DU LAC    CLOUDY    55  52  89 CALM      29.99R
$$

WIZ022-050-052-191200-
EAST CENTRAL WISCONSIN

CITY           SKY/WX    TMP DP  RH WIND       PRES   REMARKS
EPHRAIM        CLOUDY    59  56  91 E7        30.01F
WASHINGTON ISL NOT AVBL
STURGEON BAY   MOCLDY    60  58  92 E8        30.01F
MANITOWOC      NOT AVBL
SHEBOYGAN      PTCLDY    57  57 100 CALM      29.98F
$$

LMZ563-521-522-541>543-191200-
LAKESHORE

STATION/POSITION TIME  TEMP    WIND        PRES    VSBY  WAVE
                       AIR SEA DIR/SP/G                  HT/PER
                 (UTC) (F)     (DEG/KT/KT) (MB)    (MI)  (FT/S)
SHEBOYGAN LKSHOR 1100   63      10/  3/  4 1015.0S
KEWAUNEE LKSHORE 1042   60      30/  3/  5 1015.1S
NORTHPORT PIER   1040   64     100/ 15/ 18 1016.6F
N MID LAKE BUOY  1050   63 64  100/ 16/ 17 1017.4F         2/ 3
S GREEN BAY BUOY 1100   63 66  100/ 12/ 16 1015.7
SISTER BAY LKSHO 1104   63      80/ 10/ 12   N/A
MENOMINEE LKSHOR 1042   64      60/ 14/ 15 1015.9F
$$




USA.gov is the U.S. government's official web portal to all federal, state and local government web resources and services.